Location: Bishop�s Knoyle
(51.0728°N, 2.1714°W)
Time: 19:29:21
(UTC+00:00)

AO-85 - Visible Passes

Search period start: 07 December 2021 00:00
Search period end: 17 December 2021 00:00
Orbit: 521 x 762 km, 64.8° (Epoch: 12 March)

Date Brightness Start Highest point End Pass type
(mag) Time Alt. Az. Time Alt. Az. Time Alt. Az.
07 Dec ? 18:05:12 10° WSW 18:10:10 43° NW 18:13:21 21° NNE visible
07 Dec ? 19:47:59 10° WNW 19:50:55 19° NNW 19:50:55 19° NNW visible
08 Dec ? 16:48:39 10° SW 16:53:50 90° SSE 16:59:11 10° NE visible
08 Dec ? 18:30:21 10° W 18:34:56 29° NNW 18:37:06 22° N visible
08 Dec ? 20:13:18 10° NW 20:14:41 14° NNW 20:14:41 14° NNW visible
09 Dec ? 17:13:12 10° WSW 17:18:18 54° NW 17:23:16 11° NE visible
09 Dec ? 18:55:44 10° WNW 18:59:51 22° NNW 19:00:51 21° N visible
09 Dec ? 20:38:21 10° NW 20:38:26 10° NW 20:38:26 10° NW visible
10 Dec ? 17:38:11 10° W 17:42:59 35° NNW 17:46:59 14° NNE visible
10 Dec ? 19:21:08 10° NW 19:24:34 19° NNW 19:24:34 19° NNW visible
11 Dec ? 18:03:28 10° WNW 18:07:50 25° NNW 18:10:41 17° NNE visible
11 Dec ? 19:46:20 10° NW 19:48:16 16° NNW 19:48:16 16° NNW visible
12 Dec ? 16:46:06 10° WSW 16:51:04 42° NW 16:56:09 10° NE visible
12 Dec ? 18:28:54 10° WNW 18:32:48 20° NNW 18:34:22 18° N visible
12 Dec ? 20:11:12 10° NW 20:11:57 13° NNW 20:11:57 13° NNW visible
13 Dec ? 17:11:15 10° W 17:15:50 29° NNW 17:20:28 10° NNE visible
13 Dec ? 18:54:13 10° NW 18:57:52 18° N 18:58:04 18° N visible
14 Dec ? 17:36:38 10° WNW 17:40:45 22° NNW 17:44:09 13° NNE visible
14 Dec ? 19:19:16 10° NW 19:21:44 17° N 19:21:44 17° N visible
15 Dec ? 18:02:02 10° NW 18:05:47 19° N 18:07:50 16° NNE visible
15 Dec ? 19:43:58 10° NNW 19:45:25 15° NNW 19:45:25 15° NNW visible
16 Dec ? 16:44:23 10° WNW 16:48:44 25° NNW 16:53:06 10° NNE visible
16 Dec ? 18:27:14 10° NW 18:30:52 18° N 18:31:31 18° N visible
16 Dec ? 20:08:26 10° NNW 20:09:06 13° NNW 20:09:06 13° NNW visible
